User: anonymous   Login
Location: Caltech
(34.1382°N, 118.1253°W)
Time: 02:24:01
(UTC-08:00)
Language:

ADEOS II - Orbit

View from above orbital plane
View from above orbital plane
View from above satellite
View from above satellite

Ground track
Ground track

The orbit data is extracted from the following two-line orbital elements,

1 27597U 02056A   18052.47450983  .00000044  00000-0  35108-4 0  9998
2 27597  98.4063  16.9083 0000982  30.3465 329.7773 14.27335566790982
Epoch (UTC): 21 February 2018 11:23:17
Eccentricity: 0.0000982
inclination: 98.4063°
perigee height: 800 km
apogee height: 801 km
right ascension of ascending node: 16.9083°
argument of perigee: 30.3465°
revolutions per day: 14.27335566
mean anomaly at epoch: 329.7773°
orbit number at epoch: 79098

The dashed part of the orbit path shows where the satellite is in the earth's shadow,  

DLR